Wind_Speed
4 7 9 9 8 10 11 12 14 13 14 15 12 8 4 0 3 6 9 12 14 14 14 13 14 14 15 18 19 20 22 22 22 22 21 21 21 19 18 17 14 12 12 12 12 10 7 6 5 5 6 6 7 7 9 10 11 13 15 17 18 18 18 17 16 15 16 16 16 15 14 12 10 10 10 9 9 9 9 9 9 9 10 11 12
9 11 11 10 9 9 9 12 14 13 13 14 13 8 5 2 2 3 7 12 14 14 13 11 12 12 14 18 20 21 21 20 22 22 19 18 20 21 20 17 15 15 15 14 14 12 9 7 6 5 6 7 8 8 9 10 11 12 13 16 18 19 19 19 17 16 17 16 16 16 14 13 11 10 9 9 8 9 8 8 8 8 9 10 11
11 9 8 9 7 5 4 7 11 12 12 13 13 10 4 4 4 4 5 9 12 12 11 10 8 9 13 17 20 20 20 19 20 23 21 16 17 21 21 19 17 17 17 16 15 14 11 9 8 6 7 7 8 9 9 10 10 11 12 14 17 18 19 20 19 17 17 17 17 16 14 13 12 11 10 9 8 8 8 7 7 7 8 8 8
9 7 7 8 7 6 6 7 10 10 10 11 11 11 7 5 5 5 5 6 9 10 10 12 11 10 15 19 20 19 19 19 20 22 22 19 18 18 19 21 19 19 19 18 17 16 14 12 10 8 7 7 8 9 9 10 10 11 11 13 15 18 19 20 20 19 18 18 17 16 15 13 12 11 11 10 9 9 8 8 7 6 6 5 4
5 7 8 9 9 12 13 13 13 11 9 9 10 10 8 6 5 5 7 7 8 10 12 14 16 17 20 20 19 18 18 20 20 19 21 22 22 20 18 20 21 21 21 20 19 19 16 14 13 10 8 7 8 8 9 10 10 10 11 11 13 16 18 19 20 20 19 19 18 17 16 14 13 12 11 11 10 10 9 8 8 7 5 3 1
14 16 17 16 16 18 19 17 15 13 11 9 9 9 6 5 5 5 7 7 8 10 12 14 14 16 19 20 19 19 19 19 19 19 20 22 24 23 19 17 22 23 23 22 22 21 19 17 15 13 11 9 8 8 9 9 10 10 10 10 12 14 16 18 20 21 21 20 19 18 17 15 13 12 12 12 11 11 11 10 9 7 6 3 1
24 25 24 21 19 20 21 20 19 18 15 12 12 11 7 5 5 5 6 8 10 13 13 14 13 14 17 19 19 20 20 19 19 19 20 21 23 25 21 19 23 23 24 26 25 24 22 19 17 15 13 11 9 8 8 9 10 10 10 10 11 12 14 17 18 20 21 21 21 20 18 16 14 13 12 12 12 12 12 11 10 9 7 4 2
25 25 24 23 20 20 21 22 22 21 20 18 17 16 12 7 5 5 6 8 10 12 13 14 14 16 17 17 16 19 20 20 20 20 20 20 22 24 23 23 26 25 24 27 27 27 25 22 20 18 16 14 12 10 9 9 10 11 11 12 12 12 13 15 17 19 21 22 22 22 20 18 16 15 13 13 14 14 13 13 11 10 8 6 4
26 25 25 23 22 22 23 23 24 25 24 22 21 21 19 14 9 6 7 9 10 11 12 12 13 15 17 17 16 18 20 19 21 21 20 19 19 22 24 25 26 26 26 27 28 29 28 25 22 20 18 17 15 13 11 10 9 11 12 13 14 14 13 14 16 18 20 22 22 23 22 21 19 18 16 15 15 15 15 14 13 12 10 8 5
27 26 25 25 24 25 25 24 25 27 27 25 23 24 23 21 17 13 12 13 12 12 12 12 12 14 16 16 15 16 17 18 20 21 20 19 18 20 24 25 25 25 26 27 29 30 30 27 24 22 21 19 18 16 14 13 11 11 12 14 16 16 15 15 16 18 20 22 22 23 22 22 21 20 19 18 17 16 16 15 14 13 11 9 7
26 26 26 26 26 26 27 26 27 28 29 28 26 25 26 25 24 22 22 21 19 16 15 15 14 14 16 16 14 15 15 17 19 20 21 21 20 21 23 24 25 25 25 28 31 31 31 30 27 25 23 21 20 18 17 16 14 12 12 13 15 17 17 16 16 18 20 22 23 23 23 22 22 21 21 20 19 18 17 16 15 15 13 11 8
26 27 28 28 27 26 27 28 29 29 29 30 30 30 30 30 31 30 29 29 28 23 19 18 18 17 17 16 16 17 17 17 19 19 20 20 22 22 22 22 25 25 25 27 31 32 32 32 30 28 27 24 22 21 20 19 17 15 14 12 13 15 17 18 17 17 19 21 23 24 23 23 22 22 22 21 21 19 19 18 17 16 14 12 9
28 29 30 31 30 29 29 29 29 28 29 31 33 34 35 35 36 36 35 34 33 30 24 22 22 22 21 19 19 20 19 18 19 19 19 20 22 23 22 22 24 24 24 25 28 32 33 33 31 30 29 27 25 24 23 21 20 19 17 14 12 12 15 17 18 18 18 20 22 24 24 24 23 23 23 23 22 21 21 20 19 17 16 13 10
27 29 31 32 32 32 32 32 31 29 28 30 33 36 37 37 37 39 39 39 38 36 31 29 28 27 25 23 22 22 20 19 20 21 20 20 21 22 23 23 24 25 25 24 26 32 34 33 33 31 30 29 28 27 25 24 22 21 19 17 14 12 12 14 17 18 18 19 20 23 25 25 25 25 25 24 23 23 22 22 21 20 18 14 13
27 28 30 30 31 31 32 33 32 31 29 28 29 33 38 40 40 40 41 42 43 41 38 36 34 31 28 26 25 24 22 21 22 21 20 20 21 23 25 25 25 26 25 24 27 31 33 34 34 32 31 30 29 28 28 27 25 24 21 19 17 15 13 12 14 17 19 20 20 22 24 25 26 26 26 25 25 24 24 24 23 22 20 17 16
30 30 30 30 30 30 30 31 31 31 30 29 28 29 34 40 43 44 43 44 45 45 43 41 40 37 34 32 29 26 26 25 23 21 21 22 23 25 27 27 26 26 25 25 28 31 33 33 34 33 33 31 30 30 29 29 29 27 25 23 21 18 16 15 15 16 19 20 21 22 23 26 27 28 28 27 26 26 26 25 25 24 22 20 19
33 33 32 31 31 30 30 30 30 31 31 31 31 30 31 35 40 45 47 47 48 49 48 46 44 43 41 39 34 30 29 28 25 24 24 25 26 27 27 27 27 26 26 25 27 30 33 33 34 34 34 33 32 32 31 32 31 30 29 27 26 23 20 18 17 18 19 21 22 23 24 26 28 30 30 28 28 27 27 27 27 26 24 22 22
35 36 36 35 34 33 32 31 31 31 31 31 32 32 32 33 36 40 44 49 51 53 54 54 51 48 47 45 41 36 33 30 28 28 28 28 29 29 28 29 30 29 28 27 27 30 33 34 34 35 35 34 33 32 32 33 34 33 32 31 29 27 24 21 20 20 21 22 23 24 25 26 28 31 32 30 29 29 29 29 28 28 26 25 24
37 37 37 37 36 35 35 34 33 33 32 32 32 33 33 34 34 36 39 45 50 53 56 57 56 55 53 50 48 45 39 34 32 31 32 32 31 30 30 31 31 30 29 29 29 31 33 35 35 35 35 34 33 32 31 32 33 34 34 34 32 30 28 26 23 22 23 24 25 25 26 27 29 31 33 33 31 30 30 30 30 29 28 27 26
39 38 38 37 37 36 35 35 35 34 34 33 33 33 34 34 35 35 38 41 46 50 54 57 57 57 57 55 55 52 46 42 38 35 36 37 36 34 33 34 32 30 31 30 29 31 33 36 36 36 36 35 33 32 30 30 31 32 34 35 34 33 31 29 27 25 24 26 27 28 28 28 29 31 33 34 33 32 32 32 31 31 30 29 29
40 40 40 39 38 38 37 37 37 36 36 35 35 35 35 36 37 36 37 40 43 47 52 56 58 59 59 59 58 57 54 50 45 41 41 41 40 38 37 37 34 32 33 32 31 31 32 36 38 37 36 36 35 33 31 29 29 30 31 32 33 32 32 31 29 28 27 27 29 30 31 31 31 32 33 35 35 34 33 33 33 33 32 31 30
41 41 41 41 40 40 40 40 40 39 38 38 37 37 38 39 40 39 39 40 42 44 48 52 56 60 62 61 61 61 59 57 53 49 46 45 44 42 41 40 38 37 38 36 35 33 32 36 40 38 38 38 37 35 32 30 29 30 30 31 31 30 30 30 30 29 29 29 30 32 34 34 33 33 34 35 36 36 35 35 35 35 34 33 32
42 42 42 42 42 42 41 41 41 41 41 41 41 41 41 42 43 43 42 42 43 44 46 49 52 57 61 63 64 64 62 62 60 56 52 50 48 46 44 43 42 41 42 41 40 38 36 37 39 40 40 40 39 37 34 31 31 31 31 31 31 30 29 29 30 30 30 30 31 32 35 36 36 35 35 36 37 38 37 37 37 37 36 35 34
42 42 42 43 43 42 43 42 42 42 42 43 43 43 43 44 45 45 45 45 45 46 47 49 50 53 58 63 66 68 67 66 65 62 59 56 53 50 49 47 45 45 45 43 42 41 40 39 39 40 41 41 40 39 36 34 33 33 33 33 32 31 30 30 30 31 32 32 32 33 35 38 38 37 37 37 37 38 39 39 38 39 39 38 36
43 43 42 43 43 43 43 43 43 44 44 44 44 44 45 45 46 47 47 47 47 48 48 50 51 52 55 60 65 69 70 70 69 66 64 62 58 55 54 51 48 49 48 45 43 42 41 41 40 40 43 43 42 40 39 36 35 35 34 34 33 32 32 32 32 32 33 33 34 34 36 39 41 40 38 38 38 38 40 41 40 40 40 40 39
45 44 44 43 44 44 43 43 44 44 45 45 46 46 47 47 48 48 48 48 49 49 50 50 52 53 55 57 61 66 70 72 73 71 68 66 63 60 58 55 52 52 51 47 45 45 43 43 42 41 43 44 43 41 40 37 36 36 35 34 34 33 33 34 33 33 33 34 35 35 36 40 43 43 40 39 39 39 40 41 42 41 41 41 41
46 46 45 45 44 44 44 44 44 45 46 46 47 48 49 49 50 49 49 49 49 50 51 52 52 54 55 57 59 63 68 72 74 75 73 71 70 67 63 60 57 55 54 50 48 47 47 47 46 42 42 45 45 44 42 39 37 37 36 35 34 33 34 34 35 35 34 34 35 36 37 40 44 45 43 40 39 39 39 41 42 43 43 43 43
47 46 46 45 45 45 44 44 45 46 47 48 49 50 51 52 51 51 50 50 50 50 51 52 54 55 56 57 59 61 66 70 74 77 78 76 74 71 68 65 61 58 56 53 50 50 51 52 50 47 45 45 46 45 44 43 40 38 37 37 36 34 34 34 35 36 36 35 35 35 37 40 44 46 45 42 40 40 40 40 41 43 43 44 44
47 46 46 46 46 45 44 44 45 47 48 50 51 52 52 53 53 52 52 51 51 51 51 52 53 55 57 58 59 61 64 68 73 77 80 81 79 75 72 70 66 61 59 57 54 52 54 54 53 51 48 45 45 45 44 44 41 38 38 39 38 37 36 35 36 37 37 36 35 35 37 39 43 47 47 44 41 40 39 40 40 42 44 45 45
46 46 45 46 46 45 44 44 46 47 49 51 53 54 54 54 54 53 53 53 52 52 52 52 53 55 57 59 60 61 63 67 72 75 79 81 82 80 76 73 70 66 63 62 59 56 56 56 55 54 52 48 45 43 43 43 41 39 39 39 40 41 39 37 37 38 37 37 36 36 37 39 43 47 48 46 43 40 39 39 40 42 43 45 46
46 45 45 45 45 45 45 45 47 49 50 52 55 56 57 57 57 55 54 54 54 53 52 52 53 54 56 58 60 61 63 65 69 74 77 80 82 83 80 76 74 72 69 66 63 60 58 56 57 58 56 53 49 45 44 42 41 41 41 39 41 43 43 40 39 39 38 37 38 37 37 39 42 46 49 47 44 41 40 40 41 42 43 45 46
46 46 46 46 46 46 46 47 50 52 53 54 57 59 60 61 61 59 57 55 54 54 52 51 52 53 55 57 58 61 63 65 67 72 77 80 81 82 83 81 79 77 75 71 66 64 62 59 59 60 59 57 53 50 47 42 42 44 41 39 41 44 45 44 41 40 39 39 39 38 37 38 41 44 48 47 45 43 41 41 41 42 44 45 46
47 47 46 47 47 48 49 50 53 55 57 58 60 61 63 64 64 62 60 58 57 55 53 52 51 52 53 56 58 59 62 65 67 69 74 80 82 81 83 85 84 82 79 75 70 68 67 62 59 60 59 58 56 54 51 47 45 46 43 40 42 44 46 47 45 42 41 41 40 39 37 37 39 43 47 47 46 44 42 41 41 42 43 45 47
49 49 48 49 49 50 51 53 55 58 60 62 63 64 65 66 65 63 62 61 59 57 55 53 52 51 52 55 57 58 60 63 67 69 72 79 82 82 82 84 87 86 82 79 74 72 71 67 62 60 59 57 57 56 55 52 49 47 46 43 41 42 45 48 46 44 42 41 40 38 36 36 38 41 45 47 46 44 43 41 41 41 43 45 47
50 50 51 51 52 53 54 56 58 61 63 64 66 66 68 67 64 62 63 62 61 60 57 53 51 51 52 53 55 57 58 61 65 69 71 76 81 83 82 83 86 88 86 83 79 75 75 71 65 62 60 56 56 56 56 54 51 49 47 44 41 41 44 46 47 44 42 41 40 38 36 36 38 40 44 46 45 44 43 42 40 40 42 45 48
54 53 53 54 54 55 57 59 60 62 64 66 68 69 70 68 64 62 63 62 61 61 59 55 52 51 51 52 53 55 57 58 62 68 70 74 79 83 84 83 84 87 87 85 82 79 78 75 69 65 62 58 56 56 56 55 52 50 49 47 44 43 44 45 46 44 42 40 39 38 37 36 38 40 42 45 45 44 43 42 41 41 41 43 46
56 56 56 57 57 58 59 61 63 64 65 65 68 71 73 72 68 64 63 62 62 61 60 57 54 52 51 51 52 53 56 57 60 65 69 72 77 81 84 84 84 86 87 85 85 83 80 78 74 69 65 61 58 58 56 55 53 51 52 51 49 47 47 46 45 44 43 40 38 38 37 37 38 40 42 43 44 44 43 42 42 42 42 43 45
57 58 58 59 60 61 62 63 65 66 67 66 66 68 73 77 76 69 64 64 64 62 60 57 56 54 51 50 50 51 54 56 57 62 68 71 75 80 83 85 85 86 87 86 86 85 82 80 78 73 68 64 61 59 58 56 53 52 52 51 47 47 49 47 44 44 43 41 39 39 39 38 39 40 42 42 43 43 43 43 43 43 42 43 45
59 59 59 60 61 62 64 65 66 68 69 69 68 67 69 75 78 74 69 69 67 64 60 57 56 54 51 48 48 49 52 54 55 60 66 70 73 77 81 84 85 86 85 84 86 86 84 83 81 76 70 66 63 59 58 56 53 51 51 49 47 49 50 48 45 44 43 42 41 40 39 40 39 40 42 42 43 43 43 43 43 42 42 42 44
60 60 60 61 62 64 65 66 68 69 71 72 72 70 70 72 75 74 70 69 67 63 60 57 54 52 49 47 46 47 49 51 54 58 63 67 71 75 80 83 85 85 84 83 85 87 86 84 82 76 70 68 64 60 57 55 52 52 51 49 50 51 51 49 46 43 42 43 42 40 39 39 39 39 41 42 43 43 43 42 41 41 41 41 42
61 61 61 62 63 65 66 67 69 71 73 75 75 74 74 74 73 72 69 66 64 61 57 55 52 49 47 46 44 44 46 48 52 55 60 65 69 73 78 81 84 85 85 83 84 87 87 84 80 75 70 70 67 61 57 54 53 54 53 51 50 51 50 49 46 43 43 43 41 38 37 39 39 39 41 41 42 43 42 41 40 40 39 39 40
61 61 62 63 64 66 67 68 70 72 75 77 77 77 77 76 74 71 68 64 61 58 55 52 49 46 44 44 42 42 43 46 50 53 57 62 67 71 75 80 83 84 84 84 83 82 83 81 78 75 71 70 68 62 58 56 56 57 55 51 50 50 50 48 46 45 45 44 41 40 39 39 40 41 41 41 41 42 43 42 40 39 38 38 39
62 62 63 64 65 67 68 70 72 73 77 80 80 79 80 79 76 73 68 63 59 56 52 49 46 43 41 40 39 40 42 45 48 51 55 60 64 68 73 78 81 82 83 84 81 78 77 78 78 76 72 69 67 64 61 58 57 58 57 53 51 49 47 48 48 47 46 45 43 41 40 38 39 41 43 43 42 42 42 42 41 38 36 37 39
62 63 64 65 66 67 70 72 74 76 78 80 81 81 82 80 78 74 68 62 57 53 49 46 44 41 38 37 38 39 40 43 46 48 52 57 61 65 71 76 79 80 81 81 80 77 74 75 77 75 71 69 68 65 63 61 59 59 58 55 52 49 46 46 48 48 49 47 44 43 43 40 39 41 43 45 44 42 42 42 41 38 36 37 38
63 64 64 65 66 69 72 74 77 79 79 79 81 83 83 80 77 73 67 61 55 50 46 44 41 39 36 35 36 37 39 41 43 46 50 55 59 62 68 74 77 78 78 78 78 77 75 74 75 74 71 69 68 66 64 64 63 61 59 57 54 51 47 46 48 50 51 50 46 45 45 43 41 41 43 46 46 44 43 43 42 39 37 37 38
64 65 65 66 68 71 75 77 79 82 82 82 83 84 83 79 76 71 65 60 53 46 43 41 39 36 33 33 35 36 38 39 41 44 47 52 56 60 65 72 76 77 77 76 76 76 75 73 74 74 72 70 70 67 66 66 66 63 62 59 57 55 52 49 49 50 50 50 48 47 46 44 42 42 44 46 46 45 45 44 42 40 37 36 37
65 66 66 67 69 73 77 80 82 84 84 84 84 84 82 78 74 68 63 57 50 43 40 38 37 34 31 31 33 35 35 36 38 41 45 49 54 58 62 69 74 76 76 76 76 75 74 73 74 74 74 72 71 69 67 68 68 67 65 62 60 58 55 52 49 48 49 50 50 49 48 46 44 45 46 46 45 44 45 45 43 41 39 38 38
66 67 68 70 72 75 78 81 83 85 85 85 85 84 82 77 70 65 60 53 45 39 37 35 34 32 29 29 31 32 32 34 36 39 42 47 51 55 60 66 72 75 76 76 76 75 75 75 74 74 75 73 72 71 69 68 69 68 67 64 62 60 57 54 51 49 49 51 50 50 51 48 46 46 47 46 44 43 44 44 43 41 40 41 41
69 70 71 74 76 79 81 82 84 85 86 86 84 83 80 73 66 61 56 49 41 36 33 32 31 29 27 27 28 30 31 32 33 35 39 44 48 52 58 64 69 74 75 75 75 74 75 76 76 75 76 74 72 72 71 69 68 69 67 65 64 62 59 56 54 50 50 51 52 53 53 51 48 47 47 45 42 42 43 43 41 39 40 43 44
71 72 75 77 79 81 83 85 86 86 87 86 83 79 75 68 62 56 51 44 37 33 31 29 27 26 24 25 26 28 28 29 30 32 35 40 44 48 55 61 67 72 74 75 75 75 76 77 77 76 76 74 72 72 72 71 69 68 68 68 67 64 60 58 56 53 50 52 54 54 54 53 51 50 50 47 43 42 44 43 40 40 42 44 44
73 75 78 80 82 84 85 87 88 88 87 86 81 75 68 62 56 51 46 39 33 31 29 26 25 24 24 24 25 25 24 24 26 28 31 36 40 45 51 58 65 70 73 75 76 77 77 78 78 78 77 75 73 74 74 73 71 70 69 69 69 66 62 60 58 55 51 52 55 54 54 55 54 52 50 47 45 43 41 40 42 44 45 45 45
Wind_Direction
305 335 337 332 338 1 4 -0 7 20 21 11 3 340 321 133 185 185 193 203 203 214 227 236 244 248 262 270 267 269 268 262 257 257 260 253 239 233 235 239 236 236 240 230 230 240 246 256 256 221 203 198 195 191 189 188 184 183 182 182 185 187 188 187 185 185 182 177 173 170 166 162 154 142 131 123 116 114 115 114 109 101 97 99 101
325 336 350 354 337 343 8 19 17 15 9 7 12 357 313 276 278 251 216 211 211 217 224 228 230 232 247 260 265 270 271 265 253 246 251 255 250 246 242 242 242 242 245 238 232 236 238 243 252 233 209 201 198 194 191 189 186 184 184 185 186 188 189 190 190 189 188 184 179 175 171 168 164 156 146 137 129 125 124 121 117 110 103 103 105
344 351 358 356 343 331 11 31 17 10 5 2 8 7 337 282 288 283 241 223 217 215 217 211 217 245 252 255 260 264 266 264 252 241 242 246 248 251 248 244 247 248 246 244 237 236 236 234 241 238 218 207 201 197 194 190 187 185 187 188 188 189 190 191 193 192 192 191 187 183 180 176 171 166 160 152 145 139 136 132 128 120 112 108 108
14 30 11 358 349 321 323 340 337 344 353 353 352 354 345 298 278 274 258 230 215 217 216 199 197 233 246 248 253 257 259 255 246 239 239 240 237 242 248 249 254 251 244 245 244 239 236 231 233 235 224 215 206 200 199 196 191 187 189 192 192 191 191 192 194 195 194 195 194 190 186 183 178 172 168 164 158 153 149 146 144 138 126 115 107
355 357 338 324 310 301 295 296 302 308 320 336 340 336 328 299 273 252 248 241 220 222 226 206 195 214 231 241 248 255 261 254 245 237 232 235 236 232 237 249 257 253 243 243 244 242 238 231 228 230 225 217 210 204 201 201 199 194 194 197 197 196 195 194 196 197 197 197 197 195 190 188 185 179 174 172 170 165 162 160 161 160 154 140 102
301 312 314 304 295 293 289 287 289 291 295 308 319 320 313 287 270 238 235 237 218 215 229 224 212 222 235 243 246 248 254 251 246 241 232 229 231 228 227 240 252 255 251 244 242 242 239 232 226 226 224 216 209 204 203 205 205 203 202 205 205 202 200 199 198 199 199 199 199 198 195 193 192 189 183 180 178 174 171 171 173 178 181 190 244
295 299 302 299 297 296 294 293 290 285 285 285 286 290 289 290 288 263 236 223 210 208 219 227 233 244 246 246 249 248 247 244 241 241 237 231 226 223 221 227 239 247 251 248 243 239 238 233 226 223 222 218 210 203 201 203 206 208 209 211 213 210 207 204 203 203 202 202 202 203 203 202 203 202 196 190 186 183 179 179 181 187 194 207 234
287 286 285 284 288 292 292 291 288 283 282 277 270 269 269 277 288 272 245 231 225 221 223 231 243 249 248 246 250 252 248 242 239 238 237 235 229 224 219 221 229 232 239 246 245 239 235 232 226 221 220 219 216 209 203 200 202 206 210 213 217 217 213 210 207 206 206 207 207 209 211 212 214 215 211 203 194 189 186 183 185 189 195 207 229
280 275 272 271 275 282 286 286 284 280 279 274 266 263 264 265 260 245 246 244 241 241 236 241 250 250 251 251 247 251 252 243 237 235 234 235 235 230 226 225 228 231 235 241 243 239 234 230 227 222 218 217 218 215 210 203 198 201 206 211 216 218 217 214 211 210 209 210 211 212 215 218 220 221 221 215 204 195 191 188 187 189 193 202 223
282 278 272 268 270 274 276 280 282 279 275 272 266 261 259 262 259 251 255 254 246 242 239 242 253 257 259 256 246 246 253 249 243 239 236 235 236 235 234 232 232 235 239 240 241 239 234 229 226 224 219 215 215 216 214 210 203 200 204 209 213 217 219 216 214 212 211 211 212 214 216 219 220 220 221 220 213 202 194 191 190 190 192 200 220
286 287 282 276 274 274 273 276 280 279 273 269 266 261 256 258 260 259 259 262 259 250 243 242 244 250 256 257 250 247 252 254 251 247 243 239 238 237 236 236 235 236 238 241 240 238 234 230 228 226 223 217 214 215 215 213 210 206 204 209 213 217 219 219 217 215 214 212 212 214 215 217 219 219 217 218 217 208 199 194 192 191 191 198 215
288 290 291 289 285 282 279 278 279 277 271 267 266 263 260 261 263 262 259 260 262 258 253 247 241 241 245 248 253 254 253 252 252 252 249 244 242 240 238 238 238 235 236 238 237 233 230 230 231 230 227 222 216 214 215 215 213 211 208 209 212 217 220 221 221 219 217 215 213 214 214 215 217 216 215 216 217 213 204 197 194 194 192 197 210
288 288 291 292 291 289 286 286 284 279 271 266 265 264 264 265 264 263 259 257 257 255 254 251 246 243 242 241 245 251 251 250 251 252 252 248 246 244 242 241 241 239 237 235 232 228 225 225 229 231 231 227 221 217 217 216 216 215 212 209 209 216 221 223 224 223 221 219 217 215 215 215 216 214 213 215 217 214 208 201 197 196 194 198 203
290 289 290 289 289 289 287 287 288 286 279 271 265 263 263 264 263 261 258 256 254 253 251 250 248 246 244 241 241 244 248 251 250 249 250 251 251 250 248 245 242 240 239 234 227 223 221 221 224 229 231 230 226 223 220 219 219 217 213 210 208 211 219 225 227 227 225 223 221 219 217 216 215 215 214 216 218 215 210 204 200 199 196 198 198
293 292 291 289 288 288 287 286 286 287 286 281 272 263 258 258 259 259 256 253 251 252 252 251 249 247 246 244 244 243 242 246 248 247 249 252 252 252 252 248 242 239 237 231 224 220 219 220 222 226 230 232 232 230 228 226 223 220 216 211 209 213 218 226 230 231 230 227 224 222 220 218 215 215 216 218 219 216 212 206 202 201 198 198 197
293 291 290 290 288 288 288 287 286 285 285 284 280 272 263 256 253 254 255 253 249 249 251 251 250 248 247 246 246 243 241 242 244 244 245 248 248 249 251 249 243 238 235 230 222 219 220 221 223 226 229 233 235 236 236 234 229 225 222 217 215 218 222 231 236 237 235 232 229 225 222 220 218 216 218 220 220 218 214 208 204 202 199 199 197
294 293 291 290 289 289 288 289 288 287 285 283 280 276 272 264 256 251 251 252 251 250 250 250 250 249 248 247 246 243 243 243 242 240 242 245 248 247 248 249 245 237 232 229 225 223 224 224 226 228 229 233 237 238 239 238 234 231 229 226 224 224 228 234 239 241 241 238 234 230 226 222 220 218 218 221 222 219 216 211 206 204 201 199 199
298 297 296 295 293 292 291 290 290 289 288 286 282 278 274 270 266 259 254 250 248 248 249 249 249 250 250 249 246 242 242 242 240 237 239 244 247 246 245 245 245 238 231 227 228 231 231 228 229 231 232 235 238 239 240 239 237 235 233 232 231 231 234 236 237 239 242 242 239 235 231 227 223 221 220 220 222 221 218 213 209 206 203 201 200
301 299 298 297 295 294 293 292 292 292 291 290 287 284 278 273 268 265 263 257 251 248 247 245 244 245 247 248 246 242 239 238 238 236 236 239 243 243 243 245 245 241 235 229 228 234 236 233 234 235 235 236 238 239 238 238 238 236 235 234 234 234 236 237 236 236 240 243 242 239 235 231 228 224 222 221 222 222 220 217 212 208 206 204 202
300 299 297 295 294 293 292 291 291 291 292 293 292 290 286 280 272 265 262 263 259 254 251 247 243 241 242 242 243 244 240 236 235 234 234 235 238 239 240 245 247 242 238 231 225 232 239 239 238 238 237 238 239 238 237 237 236 235 235 235 235 235 235 237 236 237 242 244 243 241 237 234 231 228 225 222 222 222 221 219 215 211 209 207 205
299 298 297 295 294 292 291 290 290 290 290 291 293 293 291 287 282 273 266 263 262 259 255 252 247 244 241 239 239 241 241 239 235 232 232 233 235 237 239 243 245 239 235 232 226 228 237 242 242 241 241 241 239 238 238 239 237 235 234 234 234 234 235 236 236 238 244 246 245 242 239 237 234 230 227 225 223 222 222 221 218 215 212 210 208
299 297 296 295 294 293 292 292 292 292 292 293 294 295 295 293 290 284 278 272 266 262 259 255 252 249 245 241 238 238 239 239 237 234 232 231 231 235 239 243 243 238 236 235 231 226 230 239 243 242 243 243 240 238 239 241 240 237 235 234 233 233 233 235 236 239 244 246 247 244 240 239 236 233 230 227 224 223 223 222 221 218 215 213 211
298 297 296 295 295 294 294 294 295 295 295 296 296 296 296 296 293 290 285 280 274 268 263 258 254 251 249 245 241 239 239 239 238 235 233 232 230 233 238 241 242 240 238 237 235 230 227 233 240 242 242 242 240 240 241 243 243 241 237 235 234 232 231 233 236 239 242 245 248 246 241 239 237 236 232 229 226 224 223 223 222 220 219 217 215
298 297 296 295 295 295 294 294 294 294 294 294 295 295 295 295 293 291 287 282 277 272 268 263 258 252 249 248 245 242 241 241 240 236 233 232 231 232 235 238 239 240 239 238 238 236 230 229 235 241 242 240 238 240 242 243 244 243 239 236 235 233 231 232 234 237 241 244 248 248 244 239 237 237 235 231 228 225 224 223 223 222 221 220 218
297 296 295 294 293 293 292 292 292 292 292 293 294 295 295 295 293 290 287 283 278 274 270 266 263 257 251 248 247 245 244 243 243 240 234 230 229 230 233 235 236 237 239 240 239 238 233 227 230 238 242 242 239 239 241 241 240 242 241 238 237 235 234 234 235 237 241 244 247 248 246 241 237 236 236 234 231 228 226 225 224 224 223 222 221
297 296 295 294 293 292 291 291 291 291 292 294 295 296 297 296 295 292 289 285 281 277 273 268 265 261 256 250 246 245 245 243 243 243 239 232 227 228 232 233 232 234 237 239 238 238 233 227 227 233 241 243 240 239 238 238 239 241 242 241 240 239 238 237 238 238 241 244 247 248 246 242 237 236 236 236 234 231 228 227 225 225 225 224 224
298 297 296 295 294 293 292 291 291 292 294 295 297 298 298 297 296 294 291 287 283 280 276 272 268 264 260 255 249 244 243 243 241 241 241 236 228 226 229 232 230 231 235 237 237 237 234 230 228 230 236 239 238 238 237 238 241 242 243 243 241 241 241 240 240 240 242 245 248 248 247 242 237 235 236 236 236 234 232 230 228 227 227 226 226
298 297 297 296 294 293 292 292 293 294 296 298 299 299 299 298 296 294 291 288 284 280 277 274 271 267 263 258 253 247 242 241 240 239 239 238 233 228 226 229 229 228 232 235 236 236 235 233 231 230 234 235 234 237 238 240 241 241 244 245 242 242 243 241 240 241 243 246 249 251 249 244 238 235 235 235 236 236 235 233 231 229 229 228 228
298 297 297 295 293 292 291 291 293 296 299 300 301 301 300 299 297 295 293 289 285 281 278 274 272 269 266 261 256 251 245 240 238 238 237 236 236 231 226 226 228 227 228 231 235 236 235 235 232 231 233 234 234 236 238 239 239 237 240 244 244 243 244 245 243 242 244 247 250 253 252 248 240 235 234 235 235 236 236 236 234 232 231 230 229
297 297 296 294 292 291 291 292 295 298 300 302 302 302 301 300 298 296 294 291 288 284 280 276 273 269 267 263 259 254 249 243 238 237 237 235 235 233 229 224 225 226 225 228 233 235 235 235 233 232 233 234 235 235 235 237 238 235 234 238 243 246 246 248 248 246 247 249 251 254 255 251 243 236 233 234 235 235 236 237 237 234 232 231 231
298 297 295 294 292 292 293 295 298 300 302 304 304 303 303 301 300 298 295 293 291 287 283 278 275 271 267 264 260 256 252 247 241 236 236 235 234 233 230 225 222 223 224 227 230 233 234 234 233 232 232 234 235 235 234 234 235 234 231 232 239 245 248 249 250 249 249 250 252 253 255 253 246 238 234 234 235 236 237 237 238 237 234 232 231
300 298 296 295 294 295 296 299 301 302 304 305 305 305 304 303 302 301 299 298 295 291 287 282 277 273 269 265 260 256 253 250 244 238 234 234 234 232 230 226 222 222 223 225 227 230 232 231 231 232 233 234 234 234 234 233 233 231 227 228 235 243 249 250 251 251 250 251 252 252 254 253 248 240 235 234 236 237 238 239 240 239 237 234 232
301 299 298 297 297 297 299 302 304 305 306 306 306 306 305 304 303 303 303 301 299 295 290 285 280 274 270 266 262 257 253 250 247 240 234 233 233 232 229 227 224 223 223 223 224 227 230 229 229 230 232 233 233 233 233 235 235 230 223 222 230 240 248 249 249 250 249 250 252 252 252 252 248 242 235 234 236 238 240 241 241 241 240 237 233
302 301 300 299 299 300 302 304 306 307 307 307 307 306 305 303 303 304 305 303 301 297 292 287 282 277 272 267 263 259 254 250 247 242 235 232 232 231 229 227 226 225 224 223 222 224 227 228 226 227 230 232 233 233 233 233 234 230 224 222 227 237 246 246 246 247 247 247 250 251 251 251 248 242 236 234 236 238 241 243 243 243 242 239 236
302 301 301 301 301 302 303 305 306 306 307 307 306 306 305 303 304 305 305 304 303 299 294 289 284 279 273 268 264 261 256 251 247 243 237 231 230 230 229 227 226 225 225 223 222 222 225 226 225 225 228 230 230 231 231 231 231 229 226 224 226 235 243 243 242 243 244 245 248 249 249 249 247 242 236 234 236 239 242 244 244 244 243 241 239
302 302 301 301 301 302 304 305 306 306 306 308 308 307 305 304 306 307 307 305 304 301 296 292 287 281 275 270 266 262 257 251 246 242 237 231 228 228 228 226 225 225 225 224 223 222 223 225 225 224 225 226 227 229 229 230 230 228 226 224 224 230 238 241 240 240 241 243 245 247 247 246 245 242 237 235 236 239 242 244 245 244 243 242 241
302 302 302 302 302 303 305 306 306 306 306 308 311 311 309 308 309 309 308 307 305 302 298 294 290 283 276 271 267 262 258 252 246 241 237 231 227 225 226 225 224 223 224 224 223 222 223 224 225 224 224 224 225 227 228 228 227 227 226 227 227 230 235 239 239 237 238 241 244 245 245 244 242 239 236 235 236 239 241 242 243 244 243 243 241
302 302 302 303 303 304 305 305 305 306 306 308 310 312 312 312 311 311 311 310 308 304 299 295 291 284 278 272 267 262 258 253 246 240 236 231 227 224 224 224 223 223 223 221 221 222 223 223 224 223 223 223 224 225 226 225 225 225 225 226 229 232 234 237 237 235 236 239 242 244 244 242 241 238 236 236 238 239 241 242 243 243 244 243 242
302 301 302 302 303 304 305 305 305 306 306 307 309 310 312 312 312 313 314 312 308 304 300 295 290 284 278 272 267 261 257 252 246 240 236 231 227 223 222 223 223 224 224 221 220 221 222 222 223 223 221 221 222 223 223 223 221 222 222 223 227 231 233 235 235 234 235 236 239 243 244 242 239 237 236 236 237 239 241 243 244 244 244 244 243
301 301 301 302 303 304 304 305 306 306 307 308 308 310 312 313 313 313 313 311 307 303 300 295 290 284 278 272 266 260 255 251 245 240 236 231 227 223 221 222 223 224 224 221 219 219 220 221 223 222 219 218 220 221 222 221 219 219 220 222 225 229 232 234 235 233 234 235 236 240 243 242 239 238 236 236 237 239 242 245 246 246 245 244 243
302 301 302 302 303 304 304 305 306 308 309 309 310 311 313 314 314 313 313 311 307 303 301 296 289 283 278 272 266 259 253 249 244 240 235 231 227 223 221 220 221 222 223 221 220 218 219 220 222 220 216 215 217 219 221 222 219 219 220 223 226 229 230 233 234 232 233 233 233 236 241 242 240 238 238 238 239 240 242 245 247 247 246 244 243
302 302 302 303 304 304 305 306 307 309 310 311 312 313 314 315 315 315 315 313 308 305 302 296 289 283 277 271 265 257 251 246 243 239 235 231 227 223 221 219 220 221 222 222 222 220 218 218 219 218 215 214 216 218 220 222 221 219 221 223 227 230 230 231 233 232 232 233 233 235 240 241 239 238 239 240 240 240 241 243 246 247 246 245 244
303 303 304 304 304 305 306 307 308 310 312 313 314 315 316 316 316 316 316 314 310 307 303 297 290 283 276 269 262 255 249 244 241 237 234 231 227 223 221 220 219 220 220 221 222 222 219 216 216 216 214 213 215 216 219 222 221 220 220 223 227 230 230 230 231 232 232 232 232 234 235 237 237 237 237 239 240 241 242 244 246 248 247 245 243
303 304 304 304 305 307 308 309 310 312 313 314 315 316 316 317 317 317 316 314 311 308 303 297 290 283 275 267 259 252 247 243 239 236 233 230 227 222 220 219 219 219 220 221 220 220 219 216 214 215 213 212 214 215 217 220 221 220 220 222 225 228 228 229 230 231 231 231 231 232 233 234 236 237 238 239 239 240 242 245 246 247 247 246 244
304 304 304 305 307 309 310 311 313 314 315 316 316 316 317 317 317 317 316 314 312 308 302 296 290 282 273 265 257 250 245 241 238 235 232 230 228 223 219 219 219 219 219 220 219 219 218 215 214 214 213 212 214 215 215 218 219 219 219 221 224 227 229 230 231 231 230 231 231 233 235 235 236 237 239 240 239 239 242 244 245 245 247 248 245
304 305 306 307 310 311 312 313 314 315 315 316 316 317 317 317 317 317 315 314 312 308 301 295 289 280 271 262 255 248 243 239 237 236 232 229 227 223 219 217 218 218 218 219 219 217 217 215 214 215 214 213 215 216 214 216 218 218 219 221 224 227 229 230 232 232 232 231 232 233 235 235 235 236 239 240 241 242 243 243 243 243 246 249 247
305 306 307 309 312 313 313 314 315 315 316 317 317 318 318 318 317 316 315 314 311 306 300 293 286 278 268 259 253 248 243 240 238 237 234 230 226 223 219 216 216 217 217 218 218 217 217 216 215 215 215 214 215 216 215 214 216 218 220 222 225 228 230 232 234 234 233 232 233 234 235 234 233 236 239 241 243 244 244 243 242 242 244 247 247
307 308 309 311 312 313 313 315 315 315 316 317 318 318 318 317 317 316 314 312 309 303 297 291 283 275 266 256 251 248 245 242 239 237 235 231 226 221 218 216 214 215 216 216 217 217 217 217 216 215 215 215 216 216 216 215 217 219 221 223 226 228 230 231 233 234 233 232 232 233 234 233 234 237 240 241 242 244 244 242 242 243 246 247 247
308 310 311 312 313 313 314 315 315 316 317 318 318 318 317 317 316 314 312 309 306 300 293 286 278 271 263 254 249 247 245 243 239 236 234 231 226 221 217 215 213 214 214 215 216 216 216 217 217 216 216 216 216 217 217 217 218 220 221 223 226 228 229 231 232 233 233 232 232 233 235 235 235 238 240 240 242 244 243 241 241 245 247 248 247
310 311 312 313 313 314 315 315 316 317 318 317 318 318 317 316 315 312 308 306 302 296 288 280 271 264 257 250 247 247 246 244 240 236 233 231 226 220 216 214 213 213 213 214 215 215 215 216 217 217 217 217 217 218 219 219 220 221 222 223 226 228 228 230 231 231 233 234 233 233 235 236 235 236 238 239 242 245 244 243 245 244 245 246 246
311 312 313 313 314 314 315 316 317 318 318 317 318 318 317 315 312 308 305 303 299 291 282 272 263 257 249 245 245 245 245 245 242 238 234 229 225 220 216 214 212 212 212 213 213 214 215 216 216 216 217 218 217 217 218 220 221 222 222 223 225 227 228 229 229 230 232 233 233 232 234 235 234 235 237 239 241 244 243 244 247 246 245 246 246
Height
10940 10939 10940 10940 10940 10937 10935 10934 10935 10934 10933 10933 10933 10934 10933 10931 10929 10928 10928 10929 10933 10936 10938 10941 10944 10947 10949 10950 10949 10949 10948 10948 10948 10947 10948 10949 10950 10951 10952 10952 10953 10953 10954 10954 10954 10954 10954 10954 10953 10952 10952 10952 10953 10953 10953 10953 10954 10954 10955 10956 10957 10959 10961 10962 10963 10964 10965 10965 10965 10965 10965 10965 10966 10966 10967 10967 10968 10968 10968 10969 10969 10969 10969 10969 10969
10939 10939 10939 10939 10937 10935 10934 10934 10934 10934 10934 10933 10933 10933 10933 10933 10932 10931 10930 10931 10933 10934 10934 10935 10938 10942 10946 10948 10948 10947 10947 10946 10946 10945 10946 10948 10950 10951 10952 10952 10953 10954 10955 10955 10955 10955 10954 10954 10953 10953 10953 10953 10953 10953 10953 10954 10954 10954 10955 10956 10957 10959 10960 10962 10963 10964 10965 10965 10965 10965 10965 10965 10966 10967 10967 10967 10968 10969 10969 10970 10970 10970 10970 10970 10970
10940 10938 10938 10937 10936 10936 10935 10934 10934 10935 10935 10935 10934 10934 10934 10934 10933 10932 10932 10931 10932 10932 10932 10931 10932 10937 10941 10943 10943 10943 10944 10944 10943 10944 10944 10946 10948 10949 10951 10952 10953 10954 10955 10955 10955 10955 10955 10954 10954 10953 10953 10953 10953 10953 10953 10954 10954 10955 10956 10956 10957 10958 10959 10961 10962 10964 10965 10965 10966 10966 10965 10965 10966 10966 10967 10967 10968 10969 10970 10970 10971 10971 10971 10971 10970
10941 10939 10938 10938 10938 10938 10937 10936 10935 10935 10936 10936 10935 10934 10934 10933 10933 10933 10932 10931 10930 10930 10930 10926 10925 10930 10934 10936 10937 10938 10939 10940 10941 10942 10944 10944 10945 10947 10950 10952 10952 10954 10954 10955 10955 10955 10955 10954 10954 10953 10953 10953 10953 10953 10953 10954 10954 10955 10956 10957 10957 10958 10959 10960 10962 10963 10964 10965 10966 10966 10966 10966 10966 10966 10967 10967 10968 10969 10970 10970 10971 10971 10971 10971 10971
10940 10939 10939 10939 10939 10938 10938 10937 10936 10935 10935 10935 10935 10934 10933 10932 10932 10932 10931 10931 10930 10929 10929 10924 10921 10924 10927 10930 10933 10934 10936 10937 10938 10940 10941 10942 10943 10946 10948 10949 10950 10952 10954 10954 10955 10955 10955 10954 10953 10953 10953 10953 10953 10953 10953 10954 10954 10955 10956 10957 10957 10958 10959 10960 10961 10962 10963 10965 10966 10966 10966 10966 10966 10966 10967 10967 10968 10968 10969 10970 10971 10972 10972 10972 10972
10938 10938 10939 10939 10938 10938 10937 10936 10935 10934 10934 10934 10934 10934 10933 10932 10931 10931 10931 10931 10929 10928 10928 10926 10923 10924 10927 10929 10930 10932 10933 10935 10937 10938 10938 10940 10942 10943 10945 10947 10948 10949 10951 10953 10954 10954 10954 10954 10953 10953 10952 10952 10952 10953 10953 10953 10954 10955 10956 10957 10958 10958 10959 10959 10960 10961 10963 10964 10965 10966 10966 10966 10966 10967 10967 10967 10968 10968 10969 10970 10971 10972 10972 10972 10972
10937 10936 10937 10937 10936 10935 10935 10934 10934 10933 10933 10933 10933 10933 10933 10931 10930 10930 10930 10929 10928 10928 10927 10926 10926 10925 10927 10928 10928 10929 10931 10933 10935 10936 10937 10938 10939 10940 10942 10946 10946 10945 10948 10950 10952 10953 10953 10953 10952 10952 10952 10952 10952 10952 10953 10953 10954 10955 10956 10957 10958 10958 10959 10959 10960 10961 10962 10963 10964 10965 10966 10966 10966 10967 10967 10967 10967 10968 10969 10970 10971 10972 10972 10972 10972
10935 10935 10935 10935 10934 10933 10932 10932 10932 10931 10931 10931 10931 10931 10931 10930 10929 10928 10928 10928 10927 10926 10926 10926 10925 10925 10925 10926 10926 10927 10928 10930 10932 10933 10935 10936 10937 10937 10938 10941 10942 10943 10945 10947 10949 10951 10952 10952 10951 10951 10951 10951 10951 10952 10952 10953 10953 10954 10955 10956 10957 10958 10958 10959 10959 10960 10961 10962 10963 10964 10965 10966 10966 10967 10967 10967 10967 10968 10968 10969 10970 10971 10972 10973 10973
10932 10933 10933 10933 10932 10930 10930 10930 10929 10928 10928 10928 10928 10928 10929 10928 10927 10926 10926 10925 10925 10924 10924 10924 10924 10924 10924 10923 10924 10925 10926 10927 10929 10930 10932 10933 10935 10936 10937 10937 10939 10940 10942 10944 10946 10948 10950 10951 10951 10951 10950 10950 10950 10951 10952 10952 10953 10953 10954 10955 10956 10957 10957 10958 10958 10959 10959 10960 10961 10962 10964 10965 10965 10966 10966 10967 10967 10967 10968 10969 10970 10971 10972 10972 10973
10929 10929 10929 10930 10929 10928 10927 10926 10926 10925 10925 10925 10925 10925 10925 10925 10924 10924 10923 10923 10922 10922 10921 10922 10922 10922 10923 10922 10922 10923 10924 10925 10926 10928 10929 10930 10932 10933 10935 10936 10937 10937 10939 10942 10943 10945 10947 10949 10950 10949 10949 10949 10949 10950 10950 10951 10952 10952 10953 10953 10954 10955 10956 10956 10957 10957 10958 10959 10960 10961 10962 10963 10964 10965 10965 10966 10967 10967 10968 10968 10969 10970 10971 10972 10972
10927 10926 10925 10925 10925 10924 10923 10922 10922 10922 10921 10922 10922 10922 10922 10921 10921 10921 10921 10920 10919 10919 10919 10919 10919 10920 10921 10921 10921 10921 10922 10923 10923 10925 10926 10928 10929 10930 10932 10934 10935 10935 10937 10939 10940 10941 10943 10946 10948 10948 10948 10948 10948 10948 10949 10950 10951 10951 10952 10952 10953 10953 10954 10955 10955 10956 10956 10957 10958 10959 10960 10961 10962 10963 10964 10965 10966 10966 10967 10968 10969 10970 10971 10972 10972
10924 10922 10921 10920 10920 10920 10920 10919 10919 10918 10918 10918 10918 10919 10918 10918 10917 10918 10918 10917 10916 10917 10918 10918 10917 10917 10917 10918 10919 10919 10919 10920 10921 10922 10923 10925 10926 10928 10929 10931 10932 10933 10934 10935 10936 10938 10940 10942 10945 10946 10946 10947 10947 10947 10948 10948 10949 10950 10951 10951 10951 10952 10953 10953 10954 10954 10955 10955 10956 10957 10958 10960 10961 10962 10963 10963 10964 10965 10966 10967 10968 10969 10970 10971 10972
10921 10919 10917 10916 10916 10916 10916 10916 10915 10915 10914 10914 10914 10914 10914 10913 10913 10913 10914 10914 10913 10913 10915 10916 10915 10914 10915 10916 10916 10916 10917 10918 10918 10919 10920 10922 10923 10925 10927 10928 10929 10930 10930 10930 10932 10934 10937 10939 10941 10943 10944 10945 10946 10946 10946 10947 10948 10948 10949 10950 10950 10951 10951 10952 10952 10953 10954 10954 10955 10956 10957 10958 10959 10960 10961 10962 10963 10964 10965 10966 10967 10968 10970 10970 10971
10919 10917 10915 10914 10913 10912 10912 10911 10911 10910 10910 10910 10910 10910 10909 10909 10908 10908 10909 10909 10908 10909 10911 10913 10912 10911 10912 10913 10913 10913 10914 10916 10916 10917 10918 10919 10920 10921 10923 10924 10925 10925 10926 10926 10928 10930 10933 10935 10937 10939 10941 10943 10944 10944 10944 10945 10946 10947 10948 10948 10949 10949 10950 10951 10951 10952 10952 10953 10953 10954 10955 10956 10958 10959 10960 10961 10961 10962 10963 10965 10966 10967 10968 10970 10970
10917 10915 10913 10911 10910 10909 10908 10907 10906 10905 10905 10905 10905 10905 10904 10904 10903 10903 10903 10903 10903 10904 10906 10907 10908 10908 10909 10909 10909 10910 10912 10913 10913 10915 10916 10917 10917 10918 10919 10920 10920 10921 10922 10923 10924 10927 10929 10932 10934 10936 10938 10940 10941 10942 10943 10943 10944 10945 10946 10947 10947 10948 10949 10949 10950 10951 10951 10951 10952 10953 10954 10955 10956 10957 10958 10959 10960 10961 10962 10963 10964 10966 10967 10968 10969
10914 10913 10911 10909 10908 10907 10905 10903 10902 10901 10900 10900 10899 10899 10898 10898 10897 10897 10897 10898 10898 10899 10900 10902 10903 10905 10905 10904 10905 10907 10908 10909 10911 10912 10913 10914 10914 10914 10914 10915 10916 10917 10919 10920 10922 10924 10926 10929 10931 10934 10936 10938 10939 10940 10941 10941 10942 10943 10944 10945 10945 10946 10947 10948 10948 10949 10950 10950 10951 10951 10952 10953 10954 10955 10957 10958 10959 10960 10961 10962 10963 10964 10966 10967 10968
10909 10908 10907 10906 10905 10903 10902 10900 10898 10897 10896 10895 10894 10893 10892 10891 10891 10891 10892 10892 10892 10893 10894 10896 10898 10900 10900 10900 10901 10903 10903 10905 10908 10909 10910 10910 10910 10910 10910 10911 10912 10914 10916 10917 10920 10923 10924 10926 10928 10930 10933 10935 10937 10938 10938 10938 10939 10941 10942 10943 10943 10944 10945 10946 10947 10947 10948 10949 10950 10950 10950 10951 10952 10953 10955 10956 10957 10958 10959 10960 10961 10963 10964 10965 10967
10902 10901 10900 10899 10899 10898 10897 10895 10894 10892 10891 10891 10889 10888 10887 10886 10885 10885 10885 10885 10885 10886 10887 10889 10892 10894 10895 10896 10897 10898 10899 10901 10904 10905 10906 10907 10907 10907 10907 10908 10908 10910 10913 10914 10917 10921 10922 10924 10925 10927 10930 10932 10933 10934 10935 10936 10936 10938 10939 10940 10941 10942 10943 10943 10944 10945 10946 10947 10948 10949 10949 10950 10950 10951 10953 10954 10955 10957 10958 10959 10960 10961 10962 10964 10965
10896 10895 10893 10893 10892 10891 10891 10890 10889 10887 10886 10885 10884 10883 10881 10881 10880 10879 10878 10877 10877 10879 10880 10881 10884 10885 10888 10891 10891 10892 10894 10897 10898 10900 10901 10902 10903 10903 10904 10904 10905 10908 10910 10910 10912 10916 10919 10921 10923 10925 10926 10928 10930 10931 10932 10933 10933 10935 10936 10937 10938 10939 10940 10941 10942 10943 10944 10945 10946 10947 10948 10948 10949 10950 10951 10952 10954 10955 10956 10958 10959 10960 10961 10962 10963
10890 10889 10888 10887 10886 10886 10885 10884 10883 10882 10881 10880 10878 10877 10875 10874 10874 10874 10872 10871 10871 10872 10872 10874 10877 10878 10879 10882 10884 10885 10888 10890 10892 10894 10896 10897 10897 10898 10900 10901 10903 10905 10906 10907 10908 10911 10915 10918 10919 10921 10923 10924 10926 10927 10928 10929 10930 10931 10932 10933 10934 10936 10937 10938 10939 10940 10942 10943 10944 10945 10946 10946 10947 10948 10949 10950 10952 10953 10955 10956 10957 10958 10959 10960 10961
10885 10883 10882 10881 10880 10879 10879 10878 10878 10877 10876 10874 10873 10871 10869 10868 10867 10867 10867 10866 10866 10866 10865 10866 10869 10871 10871 10873 10876 10878 10880 10883 10886 10888 10889 10891 10892 10893 10895 10897 10900 10901 10901 10903 10904 10906 10910 10914 10916 10918 10920 10921 10922 10923 10925 10926 10927 10928 10928 10930 10931 10932 10934 10935 10937 10938 10939 10940 10941 10942 10943 10944 10945 10946 10947 10948 10949 10951 10952 10954 10955 10957 10958 10959 10960
10880 10878 10876 10874 10873 10873 10872 10871 10870 10869 10869 10868 10866 10865 10863 10862 10860 10860 10860 10860 10859 10859 10858 10859 10861 10862 10863 10866 10868 10870 10872 10874 10877 10881 10883 10885 10886 10887 10889 10892 10895 10896 10896 10899 10900 10900 10904 10908 10912 10914 10916 10917 10919 10920 10921 10922 10923 10924 10925 10926 10927 10929 10931 10932 10934 10935 10936 10937 10938 10939 10941 10942 10942 10943 10944 10945 10947 10948 10950 10951 10953 10954 10956 10957 10958
10875 10873 10871 10868 10867 10866 10865 10864 10863 10862 10861 10860 10859 10858 10857 10856 10854 10853 10853 10852 10852 10851 10851 10851 10853 10854 10855 10857 10860 10862 10864 10866 10868 10872 10876 10878 10879 10880 10883 10886 10889 10890 10891 10893 10895 10896 10897 10901 10906 10909 10910 10912 10914 10915 10917 10918 10919 10920 10921 10923 10924 10925 10927 10929 10930 10932 10933 10934 10935 10936 10937 10938 10940 10940 10941 10942 10944 10945 10947 10949 10950 10952 10953 10955 10956
10869 10868 10865 10863 10861 10860 10858 10857 10856 10855 10854 10854 10853 10852 10851 10850 10848 10846 10846 10845 10844 10844 10843 10842 10844 10845 10846 10847 10850 10852 10855 10856 10858 10863 10868 10870 10872 10874 10876 10879 10882 10883 10885 10888 10890 10891 10892 10894 10899 10903 10905 10907 10909 10911 10912 10913 10914 10916 10917 10919 10921 10922 10923 10925 10926 10928 10929 10930 10931 10933 10934 10935 10936 10937 10938 10939 10941 10942 10944 10945 10947 10949 10951 10952 10954
10864 10862 10860 10858 10856 10855 10853 10852 10850 10849 10848 10848 10847 10846 10845 10843 10842 10840 10838 10837 10836 10835 10835 10834 10834 10835 10837 10838 10839 10841 10844 10846 10848 10852 10857 10861 10865 10867 10867 10871 10875 10876 10877 10882 10885 10887 10888 10889 10892 10896 10899 10902 10904 10905 10907 10907 10909 10911 10913 10915 10917 10918 10920 10921 10922 10923 10924 10926 10927 10929 10930 10931 10932 10934 10935 10936 10937 10939 10940 10942 10944 10945 10947 10949 10951
10858 10856 10854 10853 10851 10849 10848 10846 10844 10843 10841 10841 10839 10838 10837 10835 10834 10832 10831 10829 10827 10826 10825 10826 10825 10825 10826 10828 10829 10830 10832 10834 10838 10841 10846 10851 10856 10858 10859 10863 10867 10868 10870 10875 10878 10881 10883 10884 10886 10890 10894 10897 10899 10900 10902 10903 10905 10907 10909 10911 10913 10914 10916 10917 10918 10919 10920 10921 10922 10924 10925 10926 10928 10930 10932 10933 10934 10936 10937 10939 10940 10942 10944 10946 10948
10851 10849 10847 10846 10844 10842 10841 10839 10838 10836 10835 10833 10832 10830 10829 10827 10825 10824 10823 10821 10819 10817 10815 10815 10814 10814 10815 10816 10818 10819 10820 10822 10826 10830 10834 10839 10844 10847 10850 10855 10859 10860 10863 10867 10872 10875 10877 10878 10881 10885 10888 10890 10893 10895 10897 10899 10901 10903 10905 10907 10909 10910 10911 10912 10913 10914 10915 10916 10918 10919 10921 10922 10924 10925 10928 10930 10931 10932 10934 10935 10937 10939 10941 10943 10945
10845 10843 10841 10839 10837 10835 10834 10832 10830 10829 10827 10826 10825 10823 10821 10819 10817 10815 10814 10813 10811 10808 10806 10805 10803 10802 10803 10804 10806 10807 10809 10811 10814 10818 10822 10826 10831 10837 10842 10845 10849 10853 10856 10860 10865 10868 10870 10872 10876 10879 10881 10883 10886 10888 10891 10894 10897 10900 10902 10904 10906 10906 10907 10908 10908 10909 10910 10912 10913 10915 10916 10917 10919 10921 10923 10925 10927 10928 10930 10932 10934 10936 10938 10940 10942
10839 10837 10835 10833 10830 10829 10828 10826 10824 10822 10820 10818 10816 10815 10813 10811 10808 10806 10804 10803 10801 10799 10797 10796 10793 10791 10791 10792 10794 10795 10797 10799 10802 10805 10809 10814 10819 10824 10831 10835 10839 10844 10848 10851 10856 10860 10862 10865 10870 10873 10874 10877 10880 10882 10886 10889 10892 10896 10899 10900 10902 10902 10902 10903 10904 10904 10906 10907 10909 10910 10912 10913 10914 10916 10918 10921 10923 10924 10926 10928 10930 10932 10934 10936 10938
10833 10831 10829 10826 10824 10822 10821 10819 10817 10815 10813 10811 10808 10806 10804 10802 10800 10798 10795 10793 10791 10788 10787 10786 10784 10782 10780 10780 10782 10783 10784 10787 10790 10793 10797 10801 10806 10811 10818 10826 10831 10835 10838 10841 10847 10852 10854 10859 10863 10865 10868 10871 10873 10877 10881 10884 10887 10889 10890 10893 10896 10897 10897 10899 10899 10900 10901 10903 10904 10906 10907 10908 10909 10911 10913 10916 10918 10920 10922 10924 10926 10928 10930 10932 10934
10827 10825 10822 10820 10817 10815 10814 10812 10809 10807 10806 10803 10800 10796 10794 10791 10788 10787 10785 10783 10781 10778 10776 10775 10773 10772 10770 10768 10769 10771 10772 10775 10778 10782 10785 10788 10793 10798 10806 10814 10819 10823 10827 10832 10839 10843 10846 10851 10855 10858 10861 10864 10868 10872 10875 10878 10881 10882 10882 10886 10889 10890 10892 10894 10895 10896 10897 10898 10900 10901 10902 10904 10905 10907 10909 10912 10914 10916 10918 10919 10921 10923 10925 10928 10930
10820 10818 10815 10812 10810 10808 10806 10804 10801 10798 10797 10795 10792 10788 10783 10779 10776 10774 10773 10772 10770 10767 10765 10763 10763 10761 10759 10757 10757 10758 10760 10762 10765 10770 10773 10775 10781 10787 10793 10800 10806 10812 10816 10823 10832 10834 10836 10842 10847 10850 10854 10858 10862 10866 10868 10872 10874 10875 10877 10881 10884 10885 10887 10889 10890 10891 10893 10894 10895 10896 10898 10899 10901 10903 10905 10908 10910 10912 10914 10915 10917 10919 10921 10923 10926
10812 10810 10808 10805 10802 10800 10798 10796 10792 10789 10787 10785 10783 10779 10774 10769 10765 10762 10760 10759 10758 10755 10753 10751 10751 10751 10748 10746 10745 10746 10748 10750 10751 10756 10761 10763 10768 10775 10781 10787 10794 10800 10806 10814 10823 10825 10826 10833 10839 10843 10847 10851 10855 10858 10862 10865 10867 10869 10873 10876 10879 10881 10883 10884 10886 10887 10888 10889 10890 10892 10893 10895 10896 10898 10901 10903 10906 10908 10909 10911 10913 10915 10917 10919 10921
10804 10802 10800 10797 10795 10792 10790 10788 10785 10781 10778 10776 10773 10769 10764 10759 10756 10752 10749 10748 10746 10743 10742 10740 10739 10738 10737 10734 10733 10733 10735 10737 10737 10742 10748 10751 10755 10762 10769 10776 10782 10789 10796 10805 10813 10816 10817 10823 10831 10835 10839 10845 10849 10852 10855 10858 10861 10865 10868 10870 10874 10877 10878 10878 10880 10882 10884 10885 10886 10888 10890 10891 10892 10894 10896 10899 10901 10903 10905 10907 10908 10910 10912 10914 10916
10797 10794 10792 10790 10787 10785 10782 10780 10778 10774 10770 10767 10764 10760 10755 10750 10747 10744 10740 10737 10734 10730 10729 10729 10727 10726 10724 10722 10721 10721 10723 10724 10725 10728 10734 10739 10744 10750 10757 10765 10771 10778 10786 10795 10803 10807 10808 10813 10822 10828 10832 10838 10842 10844 10847 10851 10855 10859 10863 10866 10869 10872 10872 10873 10874 10876 10879 10880 10882 10883 10886 10887 10888 10890 10892 10895 10897 10899 10901 10902 10904 10906 10907 10909 10912
10788 10786 10784 10782 10780 10778 10775 10772 10769 10766 10762 10758 10753 10749 10744 10741 10738 10735 10731 10727 10724 10719 10716 10716 10715 10714 10711 10710 10709 10709 10710 10711 10712 10715 10720 10727 10733 10738 10745 10753 10760 10767 10775 10785 10793 10798 10799 10804 10814 10820 10824 10830 10834 10836 10840 10845 10850 10854 10858 10860 10863 10866 10867 10868 10869 10871 10874 10876 10877 10879 10881 10883 10884 10886 10888 10890 10892 10894 10896 10898 10900 10901 10903 10905 10907
10781 10778 10776 10774 10772 10770 10767 10764 10761 10758 10754 10750 10744 10737 10732 10729 10728 10726 10722 10717 10713 10709 10705 10703 10702 10700 10699 10698 10697 10697 10697 10698 10700 10703 10707 10714 10721 10727 10733 10741 10750 10756 10764 10774 10782 10787 10790 10796 10805 10812 10817 10822 10826 10829 10834 10839 10844 10848 10851 10853 10857 10861 10863 10863 10864 10867 10869 10871 10873 10874 10876 10878 10880 10881 10883 10886 10888 10890 10891 10893 10895 10896 10898 10900 10902
10774 10771 10769 10766 10763 10760 10758 10755 10752 10748 10745 10743 10738 10732 10725 10717 10714 10714 10711 10706 10701 10698 10695 10692 10689 10687 10687 10686 10685 10685 10684 10685 10688 10691 10695 10701 10709 10717 10723 10729 10737 10743 10750 10760 10769 10776 10782 10788 10794 10802 10809 10815 10819 10823 10827 10832 10837 10842 10845 10848 10854 10856 10856 10857 10859 10861 10864 10867 10868 10869 10871 10873 10875 10877 10879 10881 10884 10886 10887 10889 10890 10892 10894 10896 10898
10767 10765 10762 10758 10755 10752 10749 10746 10743 10740 10736 10733 10730 10728 10723 10714 10705 10702 10700 10695 10690 10686 10683 10681 10677 10675 10674 10674 10673 10673 10673 10674 10677 10680 10684 10689 10697 10706 10712 10718 10725 10731 10739 10749 10757 10765 10772 10778 10783 10792 10801 10807 10812 10817 10820 10825 10832 10836 10839 10844 10847 10848 10849 10850 10853 10856 10859 10862 10863 10864 10866 10869 10871 10874 10875 10877 10879 10881 10883 10885 10886 10888 10889 10891 10893
10759 10757 10754 10751 10748 10744 10741 10738 10734 10730 10726 10723 10720 10718 10715 10710 10702 10696 10692 10687 10681 10676 10672 10669 10665 10663 10662 10662 10662 10662 10662 10664 10666 10670 10674 10679 10687 10695 10701 10708 10715 10722 10730 10739 10746 10753 10761 10767 10773 10783 10793 10800 10806 10810 10814 10820 10827 10830 10832 10835 10838 10840 10842 10845 10849 10852 10855 10856 10857 10859 10862 10864 10867 10870 10871 10873 10875 10877 10879 10880 10882 10883 10884 10886 10889
10751 10749 10746 10743 10739 10736 10732 10729 10725 10721 10716 10712 10709 10706 10702 10698 10693 10688 10683 10677 10670 10665 10661 10657 10655 10653 10651 10651 10651 10652 10653 10654 10656 10659 10664 10670 10676 10683 10691 10698 10705 10713 10720 10728 10735 10741 10749 10757 10765 10775 10785 10792 10798 10804 10809 10815 10821 10822 10824 10827 10831 10833 10836 10840 10844 10848 10850 10851 10854 10856 10858 10860 10863 10866 10867 10869 10871 10873 10875 10876 10877 10878 10880 10882 10885
10743 10741 10738 10734 10731 10727 10723 10720 10716 10713 10707 10700 10698 10695 10690 10685 10681 10677 10672 10667 10659 10655 10651 10647 10644 10644 10642 10641 10641 10643 10644 10645 10647 10650 10655 10660 10667 10674 10681 10688 10696 10704 10712 10719 10726 10733 10740 10749 10758 10767 10776 10784 10791 10798 10803 10808 10812 10814 10817 10822 10825 10827 10831 10836 10839 10842 10844 10847 10850 10853 10855 10857 10859 10861 10863 10865 10867 10868 10870 10872 10873 10874 10876 10878 10880
10735 10733 10730 10726 10723 10719 10714 10710 10707 10704 10698 10691 10686 10683 10678 10673 10670 10665 10661 10656 10650 10645 10641 10638 10635 10635 10634 10633 10633 10634 10635 10637 10639 10643 10647 10651 10657 10665 10672 10679 10687 10695 10702 10710 10719 10728 10736 10743 10750 10758 10768 10778 10785 10791 10796 10801 10805 10808 10812 10816 10818 10822 10827 10830 10832 10836 10839 10842 10846 10849 10851 10853 10855 10857 10858 10860 10862 10864 10866 10867 10868 10870 10873 10874 10876
10728 10725 10722 10719 10715 10711 10705 10701 10698 10694 10689 10682 10677 10672 10667 10663 10659 10654 10650 10646 10641 10636 10632 10629 10627 10626 10626 10625 10625 10626 10628 10630 10632 10636 10639 10643 10649 10656 10663 10669 10678 10686 10693 10701 10711 10720 10729 10737 10743 10751 10762 10771 10777 10783 10789 10793 10798 10801 10805 10809 10812 10816 10820 10823 10826 10830 10833 10836 10841 10844 10846 10850 10852 10852 10853 10855 10857 10860 10862 10862 10864 10866 10869 10870 10872
10721 10718 10714 10711 10707 10702 10696 10693 10689 10684 10680 10675 10669 10664 10659 10654 10649 10645 10640 10636 10633 10628 10624 10621 10620 10619 10619 10619 10619 10620 10621 10623 10626 10629 10632 10636 10641 10648 10655 10661 10669 10678 10686 10694 10703 10711 10720 10729 10737 10746 10755 10762 10768 10774 10780 10785 10790 10795 10799 10803 10807 10810 10814 10817 10820 10823 10827 10832 10836 10839 10841 10845 10847 10848 10848 10849 10852 10856 10857 10858 10860 10862 10864 10866 10867
10713 10710 10706 10703 10700 10693 10687 10683 10679 10675 10670 10666 10660 10655 10650 10645 10641 10636 10631 10628 10625 10621 10617 10614 10613 10613 10613 10613 10613 10614 10615 10618 10620 10623 10626 10629 10634 10640 10647 10654 10661 10670 10678 10686 10694 10703 10712 10722 10732 10740 10747 10754 10760 10766 10771 10777 10782 10788 10792 10796 10800 10803 10806 10810 10814 10818 10824 10828 10831 10834 10836 10839 10841 10842 10842 10844 10848 10851 10853 10854 10856 10858 10860 10862 10864
10704 10701 10697 10695 10692 10686 10679 10674 10669 10665 10661 10656 10651 10645 10641 10636 10632 10627 10623 10619 10617 10614 10611 10608 10607 10606 10607 10607 10607 10608 10610 10613 10615 10617 10620 10623 10627 10633 10639 10646 10654 10662 10671 10679 10687 10696 10705 10715 10725 10732 10739 10746 10752 10758 10764 10770 10776 10780 10785 10790 10794 10797 10801 10807 10811 10816 10820 10823 10826 10828 10830 10832 10835 10836 10837 10840 10844 10847 10848 10850 10852 10854 10856 10857 10859
10695 10692 10689 10686 10683 10678 10672 10667 10661 10656 10651 10647 10641 10636 10631 10627 10623 10618 10614 10612 10610 10607 10604 10603 10602 10601 10602 10603 10603 10604 10606 10608 10610 10612 10614 10617 10621 10626 10632 10639 10647 10655 10663 10672 10680 10690 10699 10708 10717 10724 10731 10738 10744 10751 10758 10765 10770 10774 10779 10785 10789 10792 10797 10802 10806 10810 10814 10817 10821 10822 10823 10826 10831 10832 10833 10837 10841 10843 10844 10846 10849 10851 10852 10853 10855
10688 10684 10680 10677 10673 10668 10663 10658 10653 10648 10642 10637 10632 10627 10622 10618 10614 10610 10606 10604 10602 10600 10598 10597 10597 10597 10598 10599 10599 10600 10601 10603 10605 10608 10609 10611 10615 10620 10626 10633 10641 10649 10657 10666 10675 10684 10692 10700 10708 10716 10722 10730 10737 10744 10751 10759 10765 10769 10774 10780 10783 10786 10791 10796 10800 10804 10808 10812 10815 10817 10818 10822 10827 10829 10830 10833 10838 10839 10840 10842 10844 10846 10848 10849 10851
10681 10677 10672 10667 10663 10658 10653 10648 10644 10639 10633 10627 10623 10619 10614 10609 10606 10602 10599 10597 10596 10594 10592 10592 10593 10594 10595 10596 10596 10597 10598 10599 10601 10603 10605 10607 10611 10616 10622 10628 10635 10643 10651 10660 10669 10677 10685 10692 10700 10708 10715 10723 10731 10738 10744 10752 10757 10763 10768 10773 10775 10779 10785 10790 10794 10798 10803 10806 10809 10812 10814 10818 10822 10825 10826 10830 10833 10835 10836 10836 10837 10840 10842 10844 10846
10673 10670 10665 10659 10654 10649 10644 10639 10634 10629 10624 10618 10613 10610 10605 10601 10597 10595 10593 10591 10590 10589 10587 10587 10589 10590 10591 10592 10593 10594 10595 10596 10598 10600 10602 10604 10608 10613 10618 10624 10630 10638 10646 10654 10661 10669 10676 10684 10692 10700 10706 10714 10722 10729 10736 10742 10748 10754 10760 10764 10768 10773 10778 10782 10787 10792 10797 10800 10802 10806 10809 10812 10816 10820 10823 10826 10828 10830 10833 10834 10832 10833 10837 10839 10841